Weather reports worldwide

Advertisment
Coleshill, United Kingdom (3535): temperature & dewpoint: 15.01.2020 23:00:00 - 21.01.2020 23:00:00 (GMT)Coleshill, United Kingdom (3535): temperature -20cm & temperature -100cm: 15.01.2020 23:00:00 - 21.01.2020 23:00:00 (GMT)Coleshill, United Kingdom (3535): wind speed & gusts: 15.01.2020 23:00:00 - 21.01.2020 23:00:00 (GMT)Coleshill, United Kingdom (3535): wind direction: 15.01.2020 23:00:00 - 21.01.2020 23:00:00 (GMT)Coleshill, United Kingdom (3535): reduced air pressure: 15.01.2020 23:00:00 - 21.01.2020 23:00:00 (GMT)Coleshill, United Kingdom (3535): visibility: 15.01.2020 23:00:00 - 21.01.2020 23:00:00 (GMT)Coleshill, United Kingdom (3535): precipitation: 15.01.2020 23:00:00 - 21.01.2020 23:00:00 (GMT)
Date & Time tt [°C] td [°C] tt -20cm [°C] tt -100cm [°C] ff [km/h] ff [kn] fx [km/h] fx [kn] dd ppp [hPa] vv [km] rr [mm]
21.01.2020 23:00:00 6,2 6,1 - - 5 3 - - NW 1039,8 2,6 0,0
21.01.2020 22:00:00 6,1 6,0 - - 8 4 - - NW 1039,8 1,8 0,0
21.01.2020 21:00:00 6,1 5,7 - - 8 4 - - W 1039,7 2,1 0,0
21.01.2020 20:00:00 6,1 5,4 - - 8 4 - - W 1039,8 4,6 0,0
21.01.2020 19:00:00 6,0 4,6 - - 5 3 - - W 1039,8 11 0,0
21.01.2020 18:00:00 6,0 4,2 - - 8 4 - - W 1039,8 14 0,0
21.01.2020 17:00:00 6,1 4,1 - - 11 6 - - W 1039,7 17 0,0
21.01.2020 16:00:00 6,4 3,4 - - 15 8 - - WNW 1039,7 22 0,0
21.01.2020 15:00:00 6,9 3,4 - - 15 8 - - WNW 1040,2 23 0,0
21.01.2020 14:00:00 7,0 3,4 - - 11 6 - - W 1040,8 20 0,0
21.01.2020 13:00:00 7,6 3,3 - - 13 7 - - W 1041,2 27 0,0
21.01.2020 12:00:00 6,7 3,5 - - 5 3 - - WSW 1041,9 18 0,0
21.01.2020 11:00:00 3,6 3,2 - - 5 3 - - S 1042,6 14 0,0
21.01.2020 10:00:00 2,3 2,1 - - 5 3 - - S 1042,7 13 0,0
21.01.2020 09:00:00 1,2 1,0 4,2 6,9 4 2 - - SSE 1042,5 8 0,0
21.01.2020 08:00:00 1,2 0,9 - - 4 2 - - S 1042,5 10 0,2
21.01.2020 07:00:00 1,2 1,1 - - 5 3 - - W 1042,4 11 0,0
21.01.2020 06:00:00 0,6 0,4 - - 4 2 - - S 1042,4 11 0,0
21.01.2020 05:00:00 0,8 0,7 - - 9 5 - - W 1042,2 14 0,0
21.01.2020 04:00:00 -0,7 -1,5 - - 5 3 - - W 1042,6 6 0,0
21.01.2020 03:00:00 0,5 0,1 - - 11 6 - - W 1042,7 15 0,0
21.01.2020 02:00:00 0,4 0,0 - - 11 6 - - W 1042,9 10 0,0
21.01.2020 01:00:00 1,0 0,6 - - 9 5 - - W 1043,8 16 0,0
21.01.2020 00:00:00 1,6 1,3 - - 9 5 - - W 1044,4 14 0,0
20.01.2020 23:00:00 1,6 1,3 - - 11 6 - - W 1044,7 13 0,0
20.01.2020 22:00:00 0,0 -0,2 - - 2 1 - - SSW 1045,3 6 0,0
20.01.2020 21:00:00 0,3 0,0 - - 4 2 - - SSW 1045,3 4,8 0,0
20.01.2020 20:00:00 0,8 -0,1 - - 4 2 - - W 1045,5 4,3 0,0
20.01.2020 19:00:00 2,0 1,1 - - 4 2 - - SSW 1045,6 12 0,0
20.01.2020 18:00:00 2,6 1,4 - - 4 2 - - SSW 1045,8 16 0,0
20.01.2020 17:00:00 4,0 1,9 - - 5 3 - - SSW 1045,7 22 0,0
20.01.2020 16:00:00 5,8 2,3 - - 5 3 - - WSW 1045,7 30 0,0
20.01.2020 15:00:00 7,5 2,6 - - 5 3 - - WSW 1045,7 28 0,0
20.01.2020 14:00:00 7,2 2,7 - - 11 6 - - W 1046,3 35 0,0
20.01.2020 13:00:00 7,4 2,9 - - 5 3 - - WSW 1046,9 25 0,0
20.01.2020 12:00:00 5,9 2,0 - - 4 2 - - SSW 1047,9 24 0,0
20.01.2020 11:00:00 3,9 2,2 - - 5 3 - - S 1048,7 21 0,0
20.01.2020 10:00:00 1,3 0,5 - - 8 4 - - SSE 1048,9 14 0,0
20.01.2020 09:00:00 -0,2 -0,6 4,7 7,2 4 2 - - S 1048,4 11 0,0
20.01.2020 08:00:00 -0,1 -0,7 - - 5 3 - - S 1048,3 12 0,0
20.01.2020 07:00:00 -0,4 -0,8 - - 5 3 - - SSE 1048,2 10 0,0
20.01.2020 06:00:00 -0,6 -0,8 - - 4 2 - - S 1047,9 9 0,0
20.01.2020 05:00:00 -0,2 -0,3 - - 8 4 - - S 1048,2 8 0,0
20.01.2020 04:00:00 -0,8 -1,2 - - 4 2 - - ESE 1048,5 4,5 0,0
20.01.2020 03:00:00 0,1 -0,1 - - 8 4 - - SSE 1048,9 6 0,0
20.01.2020 02:00:00 0,2 -0,2 - - 5 3 - - S 1049,0 6 0,0
20.01.2020 01:00:00 1,0 0,5 - - 9 5 - - S 1049,0 8 0,0
20.01.2020 00:00:00 1,1 0,6 - - 2 1 - - S 1048,8 8 0,0
19.01.2020 23:00:00 0,8 0,5 - - 11 6 - - SSE 1048,6 6 0,0
19.01.2020 22:00:00 0,6 0,2 - - 5 3 - - SSW 1048,3 5 0,0
19.01.2020 21:00:00 0,7 0,3 - - 4 2 - - SSW 1048,7 7 0,0
19.01.2020 20:00:00 1,1 0,6 - - 4 2 - - SSW 1048,5 8 0,0
19.01.2020 19:00:00 0,9 0,3 - - 4 2 - - S 1048,5 7 0,0
19.01.2020 18:00:00 1,4 0,2 - - 4 2 - - SSE 1048,2 8 0,0
19.01.2020 17:00:00 3,2 1,0 - - 5 3 - - NW 1047,8 9 0,0
19.01.2020 16:00:00 4,7 0,9 - - 5 3 - - W 1047,0 13 0,0
19.01.2020 15:00:00 5,9 1,9 - - 8 4 - - W 1046,6 12 0,0
19.01.2020 14:00:00 6,0 2,9 - - 2 1 - - W 1046,0 17 0,0
19.01.2020 13:00:00 3,3 3,3 - - 4 2 - - ESE 1046,0 10 0,0
19.01.2020 12:00:00 0,7 0,7 - - 2 1 - - E 1046,6 0,1 0,2
19.01.2020 11:00:00 -0,2 -0,2 - - 4 2 - - W 1046,7 0,3 0,0
19.01.2020 10:00:00 -1,0 -1,0 - - 2 1 - - SW 1046,0 0,4 0,0
19.01.2020 09:00:00 -2,3 -2,4 5,2 7,4 2 1 - - W 1045,3 0,6 0,0
19.01.2020 08:00:00 -3,0 -3,2 - - 2 1 - - W 1044,2 0,1 0,0
19.01.2020 07:00:00 -2,5 -2,7 - - 0 0 - - N 1042,9 0,2 0,0
19.01.2020 06:00:00 -1,5 -1,6 - - 2 1 - - SSW 1041,9 0,1 0,0
19.01.2020 05:00:00 -1,3 -1,5 - - 2 1 - - W 1041,3 2,9 0,0
19.01.2020 04:00:00 -0,8 -1,2 - - 4 2 - - W 1040,6 2,2 0,0
19.01.2020 03:00:00 -0,7 -1,4 - - 4 2 - - W 1040,0 2,7 0,0
19.01.2020 02:00:00 1,2 0,7 - - 4 2 - - WNW 1039,2 8 0,0
19.01.2020 01:00:00 2,1 1,5 - - 8 4 - - WNW 1038,4 13 0,0
19.01.2020 00:00:00 2,5 1,5 - - 4 2 - - NW 1037,5 15 0,0
18.01.2020 23:00:00 3,2 1,8 - - 13 7 - - NW 1036,4 18 0,0
18.01.2020 22:00:00 3,5 1,9 - - 15 8 - - NW 1035,2 19 0,0
18.01.2020 21:00:00 4,2 2,0 - - 15 8 - - NW 1034,5 24 0,0
18.01.2020 20:00:00 4,7 1,9 - - 15 8 - - NW 1033,7 25 0,0
18.01.2020 19:00:00 4,4 1,5 - - 11 6 - - NW 1032,8 26 0,0
18.01.2020 18:00:00 4,1 1,2 - - 9 5 - - W 1031,8 19 0,0
18.01.2020 17:00:00 4,8 1,1 - - 11 6 - - WNW 1031,2 24 0,0
18.01.2020 16:00:00 5,8 1,1 - - 15 8 - - WNW 1030,5 23 0,0
18.01.2020 15:00:00 6,3 0,9 - - 15 8 - - WNW 1029,6 23 0,0
18.01.2020 14:00:00 6,6 1,8 - - 15 8 - - WNW 1029,1 21 0,0
18.01.2020 13:00:00 6,6 1,7 - - 15 8 - - NW 1028,7 29 0,0
18.01.2020 12:00:00 6,0 1,3 - - 15 8 - - WNW 1027,8 24 0,0
18.01.2020 11:00:00 5,0 0,8 - - 11 6 - - WNW 1027,4 22 0,0
18.01.2020 10:00:00 3,4 0,4 - - 9 5 - - W 1026,9 18 0,0
18.01.2020 09:00:00 1,9 -0,2 6,0 7,7 9 5 - - W 1026,3 17 0,0
18.01.2020 08:00:00 1,8 -0,2 - - 11 6 - - WSW 1025,7 21 0,0
18.01.2020 07:00:00 1,1 -0,3 - - 5 3 - - WSW 1024,8 19 0,0
18.01.2020 06:00:00 1,4 0,0 - - 8 4 - - WSW 1023,9 21 0,0
18.01.2020 05:00:00 2,3 0,7 - - 11 6 - - WSW 1022,7 16 0,0
18.01.2020 04:00:00 0,9 0,3 - - 8 4 - - WSW 1022,5 23 0,0
18.01.2020 03:00:00 1,0 0,0 - - 4 2 - - SW 1022,0 23 0,0
18.01.2020 02:00:00 2,5 1,0 - - 11 6 - - WSW 1021,3 35 0,0
18.01.2020 01:00:00 2,7 1,1 - - 11 6 - - WSW 1020,3 40 0,0
18.01.2020 00:00:00 1,6 0,8 - - 5 3 - - SW 1019,6 30 0,0
17.01.2020 23:00:00 2,0 1,0 - - 8 4 - - SW 1018,5 35 0,0
17.01.2020 22:00:00 2,5 1,5 - - 9 5 - - SW 1017,4 40 0,0
17.01.2020 21:00:00 2,8 1,5 - - 11 6 - - SW 1016,9 50 0,0
17.01.2020 20:00:00 3,0 1,8 - - 11 6 - - SW 1016,3 30 0,0
17.01.2020 19:00:00 3,7 1,7 - - 9 5 - - SSW 1015,4 50 0,0
17.01.2020 18:00:00 4,1 1,8 - - 11 6 - - SSW 1015,0 35 0,0
17.01.2020 17:00:00 4,8 1,9 - - 13 7 - - SW 1014,0 45 0,0
17.01.2020 16:00:00 5,1 2,5 - - 11 6 - - SW 1013,2 45 0,0
17.01.2020 15:00:00 5,5 2,3 - - 13 7 - - SW 1012,5 40 0,0
17.01.2020 14:00:00 4,6 1,9 - - 13 7 - - WSW 1012,0 50 0,0
17.01.2020 13:00:00 4,0 2,2 - - 16 9 - - W 1011,1 50 0,2
17.01.2020 12:00:00 3,8 2,9 - - 16 9 - - WNW 1009,9 29 1,4
17.01.2020 11:00:00 6,7 4,9 - - 16 9 - - WSW 1007,7 6 0,4
17.01.2020 10:00:00 7,2 5,0 - - 15 8 - - SSW 1006,5 45 0,0
17.01.2020 09:00:00 6,3 5,3 6,9 7,7 15 8 - - S 1006,1 30 0,0
17.01.2020 08:00:00 7,0 5,8 - - 13 7 - - S 1005,5 27 0,0
17.01.2020 07:00:00 7,8 6,3 - - 13 7 - - S 1005,4 23 0,0
17.01.2020 06:00:00 7,6 6,8 - - 11 6 - - SSE 1005,3 12 0,0
17.01.2020 05:00:00 7,2 6,4 - - 9 5 - - SSE 1005,4 13 0,0
17.01.2020 04:00:00 7,2 6,4 - - 9 5 - - SSE 1005,9 13 0,0
17.01.2020 03:00:00 7,4 6,4 - - 9 5 - - SSE 1006,4 14 0,0
17.01.2020 02:00:00 7,5 6,3 - - 8 4 - - S 1006,7 17 0,0
17.01.2020 01:00:00 8,3 6,5 - - 13 7 - - S 1007,1 16 0,0
17.01.2020 00:00:00 8,8 6,6 - - 15 8 - - S 1007,1 16 0,0
16.01.2020 23:00:00 9,3 6,8 - - 18 10 - - S 1006,9 19 0,0
16.01.2020 22:00:00 10,1 7,6 - - 16 9 46 25 SSW 1006,3 14 0,0
16.01.2020 21:00:00 10,9 8,6 - - 22 12 - - SSW 1005,8 12 0,4
16.01.2020 20:00:00 11,1 9,4 - - 24 13 - - S 1004,8 18 0,0
16.01.2020 19:00:00 10,6 9,7 - - 26 14 46 25 S 1004,3 40 0,2
16.01.2020 18:00:00 10,1 9,3 - - 29 16 59 32 S 1004,1 14 0,0
16.01.2020 17:00:00 10,0 8,6 - - 34 18 54 29 S 1003,8 26 0,0
16.01.2020 16:00:00 9,0 8,4 - - 29 16 55 30 S 1004,4 11 2,6
16.01.2020 15:00:00 9,3 8,1 - - 34 18 61 33 S 1005,3 7 2,2
16.01.2020 14:00:00 9,1 7,8 - - 29 16 55 30 S 1006,4 7 0,8
16.01.2020 13:00:00 9,1 7,4 - - 28 15 50 27 SSE 1007,7 14 0,4
16.01.2020 12:00:00 9,0 6,2 - - 21 11 - - SSE 1009,2 40 0,0
16.01.2020 11:00:00 7,7 5,6 - - 18 10 - - SE 1011,4 27 0,0
16.01.2020 10:00:00 7,0 5,1 - - 18 10 - - SSE 1012,6 19 0,0
16.01.2020 09:00:00 6,5 4,9 6,7 7,7 16 9 - - SSE 1013,6 16 0,0
16.01.2020 08:00:00 6,6 5,1 - - 22 12 - - SSE 1013,5 14 0,0
16.01.2020 07:00:00 6,7 5,2 - - 18 10 - - SSE 1014,1 14 0,0
16.01.2020 06:00:00 6,3 5,1 - - 21 11 - - S 1014,6 15 0,0
16.01.2020 05:00:00 5,6 4,7 - - 15 8 - - SSE 1015,5 15 0,0
16.01.2020 04:00:00 4,7 3,9 - - 15 8 - - SSE 1016,0 14 0,0
16.01.2020 03:00:00 4,2 3,2 - - 11 6 - - SSE 1016,4 16 0,0
16.01.2020 02:00:00 3,9 2,9 - - 13 7 - - S 1016,3 17 0,0
16.01.2020 01:00:00 4,4 2,8 - - 15 8 - - S 1016,1 20 0,0
16.01.2020 00:00:00 4,7 2,8 - - 13 7 - - S 1015,7 19 0,0
15.01.2020 23:00:00 5,5 3,2 - - 16 9 - - S 1014,8 19 0,0

tt = temperature
td = dewpoint
tt -20cm = temperature -20cm
tt -100cm = temperature -100cm
ff = wind speed
fx = gusts
dd = wind direction
ppp = reduced air pressure
vv = visibility
rr = precipitation

Next stations